Location: Namasale
(1.5000°N, 32.6167°E)
Time: 20:24:31
(UTC+00:00)

Envisat - Pass Details

Date: 04 December 2021
Orbit: 764 x 766 km, 98.2° (Epoch: 25 January)

Event Time Altitude Azimuth Distance (km) Brightness Sun altitude
Rises 02:23:29 0° 12° (NNE) 3,215 6.1 -18.2°
Reaches altitude 10° 02:25:47 10° 13° (NNE) 2,291 5.4 -17.6°
Maximum altitude 02:30:50 87° 102° (ESE) 768 3.0 -16.5°
Drops below altitude 10° 02:35:55 10° 191° (S) 2,298 5.6 -15.3°
Sets 02:38:13 0° 191° (S) 3,226 6.4 -14.8°
